Regional Weather Roundup
Issued by NWS

Home | Current Version | Previous Version | Text Only | Print | Product List | Glossary Off
Versions: 1 2 3 4 5 6 7 8 9 10 11 12 13 14 15 16 17 18 19 20 21 22 23 24 25 26 27 28 29 30 31 32 33 34 35 36 37 38 39 40 41 42 43 44 45 46 47 48 49 50

000
ASUS43 KMPX 240101
RWRMN
WEATHER ROUNDUP FOR MINNESOTA
NATIONAL WEATHER SERVICE TWIN CITIES/CHANHASSEN MN
800 PM CDT SAT JUL 23 2016


NOTE: "FAIR" INDICATES FEW OR NO CLOUDS BELOW 12,000 FEET WITH NO
SIGNIFICANT WEATHER AND/OR OBSTRUCTIONS TO VISIBILITY. N/A MEANS
CURRENT SKY AND/OR WEATHER CONDITIONS ARE NOT AVAILABLE.

MNZ060>063-068>070-240200-
   Twin Cities Metro

CITY           SKY/WX    TMP DP  RH WIND       PRES   REMARKS
TWIN CITIES    PTCLDY    75  70  84 SE8       29.78F
ST PAUL        CLEAR     75  71  87 SE7       29.78F
CRYSTAL        CLEAR     76  69  79 SE7       29.77F
BLAINE         PTCLDY    75  73  94 SE7       29.79F
LAKEVILLE      CLEAR     75  73  94 SE3       29.79F
EDEN PRAIRIE   CLEAR     78  72  81 SE8       29.77F
LAKEVILLE      CLEAR     75  73  94 SE3       29.79F
SOUTH ST PAUL  CLEAR     75  72  92 SE7       29.78F
LAKE ELMO      FAIR      73  72  94 CALM      29.80F
$$
MNZ001>005-007-008-013>017-022>024-027-028-240200-
   Northwest Minnesota

CITY           SKY/WX    TMP DP  RH WIND       PRES   REMARKS
BEMIDJI        CLOUDY    75  68  78 SE7       29.76F
HALLOCK        CLOUDY    72  70  94 CALM      29.68F
ROSEAU         PTCLDY    73  68  83 SW6       29.71S
WARROAD        CLEAR     75  72  88 SW5       29.71F
THIEF RVR FALL CLOUDY    74  72  93 CALM      29.72F
CROOKSTON      MOSUNNY   77  73  88 W6        29.71S
FOSSTON        CLOUDY    73  70  88 S7        29.73F
DETROIT LAKES  CLOUDY    77  70  78 S8        29.75S
MOORHEAD       MOCLDY    81  73  78 S7        29.70F
PARK RAPIDS    CLOUDY    78  69  73 SE9       29.76F
MAHNOMEN       CLOUDY    75  70  85 SE5       29.72F
$$
MNZ006-009>011-018-025>026-240200-
   North Central Minnesota

CITY           SKY/WX    TMP DP  RH WIND       PRES   REMARKS
BAUDETTE       CLOUDY    77  69  76 S5        29.71F
FLAG ISLAND    PTCLDY    73  68  83 SE10      29.68F
INTL FALLS     CLOUDY    74  65  73 SE10G18   29.76F
WASKISH        CLOUDY    77  68  73 S7G16     29.71F
BIG FORK       CLEAR     75  64  69 S7        29.78F
LONGVILLE      CLEAR     73  66  78 SE10      29.77F
GRAND RAPIDS   CLEAR     73  67  81 SE7       29.81F
ORR            CLEAR     73  64  73 SE7       29.78F
COOK           CLEAR     75  64  69 SE7       29.82S
WALKER         CLOUDY    74  68  80 SE7       29.77F
$$
MNZ012-019>021-037-240200-
   Northeast Minnesota

CITY           SKY/WX    TMP DP  RH WIND       PRES   REMARKS
DULUTH         MOCLDY    67  62  84 SE12      29.85F
ELY            CLOUDY    72  63  73 SE3       29.85F
HIBBING        PTCLDY    70  65  84 SE9       29.82F
EVELETH        PTCLDY    73  65  76 S7        29.85F
DULUTH HARBOR  CLOUDY    64  61  88 E12       29.85F
TWO HARBORS    CLOUDY    73  64  73 E3        29.84S
SILVER BAY     CLOUDY    70  61  73 NE7       29.85F
GRAND MARAIS     N/A     66  58  75 E9        29.85F
G MARAIS ARPRT CLOUDY    68  55  64 E8        29.91F
$$
MNZ029>031-032-039>041-046>048-054>057-064-240200-
   West Central Minnesota

CITY           SKY/WX    TMP DP  RH WIND       PRES   REMARKS
FERGUS FALLS   CLOUDY    79  72  78 S8        29.74S
WHEATON        CLEAR     82  77  83 SE12      29.72S HX  91
MORRIS         CLEAR     79  73  83 SE10      29.72S
ALEXANDRIA     MOCLDY    77  71  82 SE14      29.78S
ELBOW LAKE     FAIR      78  73  85 SE13      29.74S
WADENA         MOCLDY    75  70  83 SE10      29.76S
GLENWOOD       CLEAR     75  72  88 SE12      29.77F
APPLETON       CLEAR     81  73  78 SE7       29.72R
BENSON         CLEAR     79  72  78 S13       29.73F
ORTONVILLE     CLEAR     81  75  83 SE8       29.71S
MADISON        CLEAR     84  79  84 SE9       29.71S HX  96
WILLMAR        MOCLDY    79  73  83 SE12      29.77S
$$
MNZ033>034-036-042>043-049>051-058-059-240200-
   Central Minnesota

CITY           SKY/WX    TMP DP  RH WIND       PRES   REMARKS
ST CLOUD       CLEAR     75  72  90 SE5       29.78R
SAUK CENTRE    CLOUDY    75  71  87 SE6       29.78S
PAYNESVILLE    CLOUDY    76  74  92 SE10      29.78S
AITKIN         MOCLDY    73  64  73 SE6       29.80S
PINE RIVER     CLOUDY    73  68  83 SE9       29.82F
BRAINERD       MOCLDY    74  68  81 SE5       29.80S
STAPLES        MOCLDY    75  66  73 SE12      29.78S
LONG PRAIRIE   CLOUDY    73  70  88 E8        29.79S
LITTLE FALLS   MOCLDY    73  68  83 SE7       29.79S
LITCHFIELD     PTCLDY    77  75  94 SE7       29.78S
BUFFALO        CLEAR     76  70  81 SE6       29.79S
MAPLE LAKE     CLEAR     77  73  86 SE5       29.78F
HUTCHINSON     PTCLDY    78  75  90 SE8       29.78S
$$
MNZ037-044-045-052-053-240200-
   East Central Minnesota

CITY           SKY/WX    TMP DP  RH WIND       PRES   REMARKS
PRINCETON      PTCLDY    75  70  83 E5        29.79S
MORA           CLEAR     72  64  78 SE3       29.82S
CAMBRIDGE      MOCLDY    75  66  73 SE5       29.78S
RUSH CITY      PTCLDY    73  69  87 SE3       29.81S
MOOSE LAKE     CLOUDY    72  64  78 SE3       29.81S
HINCKLEY       FAIR      73  70  88 SE6       29.81F
CLOQUET        CLOUDY    66  61  82 E6        29.84F
MCGREGOR       CLOUDY    72  64  78 S5        29.82S
$$
MNZ071>073-080-081-089-090-097-098-240200-
   Southwest Minnesota

CITY           SKY/WX    TMP DP  RH WIND       PRES   REMARKS
MONTEVIDEO     CLEAR     82  77  83 SE10      29.75S HX  91
GRANITE FALLS  PTCLDY    84  79  83 E6        29.74S HX  96
CANBY          CLEAR     88  76  68 S3        29.73S HX  98
MARSHALL       PTCLDY    87  79  76 S7        29.73S HX 101
REDWOOD FALLS  CLOUDY    84  76  76 SE10      29.74R HX  93
OLIVIA         CLOUDY    79  73  83 SE8       29.75R
PIPESTONE      CLEAR     84  79  84 S8        29.77S HX  96
WINDOM         PTCLDY    84  75  74 S8        29.78R HX  92
WORTHINGTON    CLEAR     84  77  79 MISG      29.78S HX  94
JACKSON        CLEAR     84  73  70 S7        29.79R HX  91
TRACY          PTCLDY    86  80  84 CALM      29.75R HX 101
SLAYTON        CLEAR     83  77  81 S8        29.78S HX  92
$$
MNZ065>067-074>077-082>085-091>093-240200-
   South Central Minnesota

CITY           SKY/WX    TMP DP  RH WIND       PRES   REMARKS
MANKATO        CLEAR     79  72  78 SE12      29.77F
NEW ULM        CLEAR     81  77  89 SE7       29.76R
ST JAMES       CLEAR     79  73  83 SE7       29.77R
FAIRMONT       CLEAR     82  75  78 S9        29.76S
GLENCOE        CLEAR     80  76  86 SE7       29.77S
FARIBAULT      CLEAR     79  72  78 SE5       29.79F
OWATONNA       CLEAR     79  70  73 SE5       29.80F
WASECA         CLEAR     77  70  78 SE7       29.79F
ALBERT LEA     CLEAR     77  73  88 SE5       29.80F
$$
MNZ078>079-086>088-094>096-240200-
   Southeast Minnesota

CITY           SKY/WX    TMP DP  RH WIND       PRES   REMARKS
ROCHESTER      CLOUDY    74  70  87 S8        29.83S
RED WING       CLEAR     77  70  78 E3        29.79F
STANTON        CLEAR     79  70  73 SE5       29.78F
DODGE CENTER   CLEAR     75  70  83 CALM      29.82S
WINONA         PTCLDY    73  68  83 SE7       29.81F
AUSTIN         CLEAR     75  70  83 S6        29.81S
PRESTON        CLOUDY    73  67  82 S7        29.84S
$$
ABBREVIATIONS USED IN REMARKS
   TC - TEMPERATURES IN CELSIUS
  WCI - WIND CHILL INDEX
   HX - HEAT INDEX
  VSB - VISIBILITY
$$



USA.gov is the U.S. government's official web portal to all federal, state and local government web resources and services.